Location: Peebles
(55.6412°N, 3.1714°W)
Time: 21:55:58
(UTC+01:00)

deb Kosmos-2123 - Pass Details

Date: 11 July 2022
Orbit: 942 x 985 km, 82.9° (Epoch: 17 August)

Event Time Altitude Azimuth Distance (km) Brightness Sun altitude
Exits shadow 01:53:23 12° 215° (SW) 2,597 ? -11.9°
Maximum altitude 01:59:06 51° 289° (WNW) 1,213 ? -11.7°
Drops below altitude 10° 02:05:11 10° 6° (N) 2,726 ? -11.6°
Sets 02:07:47 0° 11° (N) 3,670 ? -11.5°
